Weather History for Liberia, Costa Rica

Change the Weather History Date:

Thursday, January 3, 2013

  Actual Average Record
Temperature  
Mean Temperature 80 °F -  
Max Temperature 93 °F 88 °F 94 °F (2014)
Min Temperature 66 °F 73 °F 65 °F (2014)
Cooling Degree Days 14    
Growing Degree Days 30 (Base 50)    
Moisture  
Dew Point 64 °F    
Average Humidity 52    
Maximum Humidity 91    
Minimum Humidity 28    
Precipitation  
Precipitation 0.00 in - - ()
Sea Level Pressure  
Sea Level Pressure 29.82 in    
Wind  
Wind Speed 10 mph ()    
Max Wind Speed 24 mph    
Max Gust Speed -    
Visibility 8.1 miles    
Events      
Averages and records for this station are not official NWS values.
T = Trace of Precipitation, MM = Missing Value Source: Averaged Metar Reports

Daily Weather History Graph

Daily Weather History Graph

Search for Another Location

Airport:

Trip Planner

Search our weather history database for the weather conditions in past years. The results will help you decide how hot, cold, wet, or windy it might be!

Date:

Astronomy

Jan. 03, 2013 Rise Set
Actual Time 6:01 AM CST 5:32 PM CST
Civil Twilight 5:38 AM CST 5:55 PM CST
Nautical Twilight 5:12 AM CST 6:21 PM CST
Astronomical Twilight 4:45 AM CST 6:47 PM CST
Moon 10:51 PM CST (1/3) 10:21 AM CST (1/3)
Length of Visible Light 12h 17m
Length of Day
11h 31m
Waning Gibbous, 65% of the Moon is Illuminated
Jan 3
Waning Gibbous
Jan 4
Last Quarter
Jan 11
New
Jan 18
First Quarter
Jan 26
Full

Hourly Weather History & Observations

Time (CST) Temp. Heat Index Dew Point Humidity Pressure Visibility Wind Dir Wind Speed Gust Speed Precip Events Conditions
6:00 AM 67 °F - 65 °F 91% 29.85 in 12 mi East 2.3 mph - -   Clear
6:00 AM 68.0 °F - 64.4 °F 88% 29.83 in - East 2.3 mph - N/A   Clear
7:00 AM 73.4 °F - 66.2 °F 78% 29.85 in - East 2.3 mph - N/A   Clear
8:00 AM 78.8 °F - 68.0 °F 69% 29.88 in - WNW 4.6 mph - N/A   Clear
9:00 AM 86.0 °F 88.2 °F 66.2 °F 51% 29.87 in - ENE 21.9 mph - N/A   Clear
10:00 AM 87.8 °F 89.4 °F 64.4 °F 46% 29.86 in - ENE 24.2 mph - N/A   Clear
11:00 AM 89.6 °F 89.5 °F 60.8 °F 38% 29.84 in - ENE 19.6 mph - N/A   Clear
12:00 PM 92 °F - 63 °F 28% 29.82 in 12 mi ENE 18.4 mph - -  
12:00 PM 91.4 °F 92.1 °F 62.6 °F 38% 29.80 in - ENE 18.4 mph - N/A   Clear
1:00 PM 91.4 °F 92.1 °F 62.6 °F 38% 29.78 in 6.2 mi NE 23.0 mph - N/A   Partly Cloudy
2:00 PM 91.4 °F 92.1 °F 62.6 °F 38% 29.76 in 6.2 mi ENE 18.4 mph - N/A   Partly Cloudy
3:00 PM 91 °F - 64 °F 31% 29.77 in 12 mi ENE 1.2 mph - -   Scattered Clouds
3:00 PM 91.4 °F 93.2 °F 64.4 °F 41% 29.76 in 6.2 mi ENE 17.3 mph - N/A   Partly Cloudy
4:00 PM 87.8 °F 89.4 °F 64.4 °F 46% 29.77 in 6.2 mi ENE 18.4 mph - N/A   Partly Cloudy
5:00 PM 86.0 °F 86.6 °F 62.6 °F 45% 29.79 in 6.2 mi ENE 17.3 mph - N/A   Partly Cloudy
6:00 PM 82 °F - 65 °F 47% 29.84 in 12 mi ENE 15.0 mph - -   Scattered Clouds
6:00 PM 82.4 °F 83.9 °F 64.4 °F 54% 29.82 in 6.2 mi ENE 15.0 mph - N/A   Partly Cloudy
7:00 PM 82.4 °F 83.9 °F 64.4 °F 54% 29.85 in 6.2 mi East 12.7 mph - N/A   Partly Cloudy
8:00 PM 80.6 °F 82.7 °F 66.2 °F 61% 29.86 in 6.2 mi East 10.4 mph - N/A   Partly Cloudy